Вернуться в каталог

STARLINK-35631

АктивенСвязьVLEO
NORAD 66121·PAYLOAD·🇺🇸 United States

Запущен Oct 22, 2025 с Vandenberg Space Force Base

Loading…

Ближайшие Пролёты (ближайшие 24 часа)

TLE

СвежийSource: CelesTrak SupGP

Эпоха: Sep 14, 2026, 20:53 UTC

1 66121C 25237H   26257.87062500  .00047027  00000+0  13894-2 0  2578
2 66121  53.1574 239.8912 0001248  95.5507 103.8611 15.34367839    13

Отслеживайте STARLINK-35631 в реальном времени с AllMySat

Download on the App Store